TEVEL2-9

Last updated on Sun Jun 21 2026 00:03:20 GMT+0000 (Coordinated Universal Time)

1 63237U 25052AD 26171.42250345 .00013890 00000+0 45158-3 0 9993 2 63237 97.3932 66.7416 0008057 121.8629 238.3398 15.31981442 70523
UTC large
Height (km)
Speed (km/s)
/
Latitude / Longitude
Inclination (degrees)
Orbital Period (minutes)
Azimuth
Elevation
Range (km)
Doppler Factor

Next 0 passes for location: London (51.5072 / 0.1276)

No passes found over London.
TEVEL2-9